WetterOnline ( http://www.wetteronline.de )

Wetter aktuell Frankfurt am Main

Aktuelles Wetter: Offenbach (119m)

6-stündlich | Neueste Meldungen
Ortszeit Temperatur Wetter
Sa, 21.04. 20:00 22.8° C leicht bewölkt
Sa, 21.04. 14:00 24.8° C leicht bewölkt
Sa, 21.04. 8:00 12.1° C wolkig
Sa, 21.04. 2:00 12.9° C wolkig
Fr, 20.04. 20:00 24.2° C leicht bewölkt
Fr, 20.04. 14:00 26.1° C wolkig
Fr, 20.04. 8:00 11.8° C leicht bewölkt
Fr, 20.04. 2:00 11.1° C wolkig
Ortszeit Temperatur Wetter
So, 22.04. 1:00 14.7° C leicht bewölkt
So, 22.04. 0:50 14.7° C leicht bewölkt
So, 22.04. 0:40 15.0° C bedeckt
So, 22.04. 0:30 16.3° C wolkig
So, 22.04. 0:20 16.3° C wolkig
So, 22.04. 0:10 16.4° C wolkig
So, 22.04. 0:00 16.2° C wolkig
Sa, 21.04. 23:30 17.3° C wolkig
Sa, 21.04. 23:00 17.9° C wolkig
Sa, 21.04. 22:30 18.4° C wolkig
Sa, 21.04. 22:00 18.1° C wolkig
Ortszeit Relative Feuchte Sichtweite
Sa, 21.04. 20:00 52% 30 km
Sa, 21.04. 14:00 42% 25 km
Sa, 21.04. 8:00 89% 12 km
Sa, 21.04. 2:00 89% 21 km
Fr, 20.04. 20:00 42% 45 km
Fr, 20.04. 14:00 32% 40 km
Fr, 20.04. 8:00 75% 27 km
Fr, 20.04. 2:00 81% 40 km
Ortszeit Relative Feuchte Sichtweite
So, 22.04. 1:00 82% 13 km
So, 22.04. 0:50 82% -
So, 22.04. 0:40 80% -
So, 22.04. 0:30 73% 14 km
So, 22.04. 0:20 73% -
So, 22.04. 0:10 73% -
So, 22.04. 0:00 76% 18 km
Sa, 21.04. 23:30 72% 16 km
Sa, 21.04. 23:00 69% 12 km
Sa, 21.04. 22:30 69% 21 km
Sa, 21.04. 22:00 73% 27 km
Ortszeit Niederschlagsmenge Niederschlagsart
Sa, 21.04. 20:00 0.0 l/m2 in 12 Std. -
Sa, 21.04. 14:00 0.0 l/m2 in 6 Std. -
Sa, 21.04. 8:00 0.0 l/m2 in 12 Std. -
Sa, 21.04. 2:00 0.0 l/m2 in 6 Std. -
Fr, 20.04. 20:00 0.0 l/m2 in 12 Std. -
Fr, 20.04. 14:00 0.0 l/m2 in 6 Std. -
Fr, 20.04. 8:00 0.0 l/m2 in 12 Std. -
Fr, 20.04. 2:00 0.0 l/m2 in 6 Std. -
Ortszeit Niederschlagsmenge Niederschlagsart
So, 22.04. 1:00 0.0 l/m2 in 1 Std. -
So, 22.04. 0:50 keine Meldung -
So, 22.04. 0:40 keine Meldung -
So, 22.04. 0:30 0.0 l/m2 in 1 Std. -
So, 22.04. 0:20 keine Meldung -
So, 22.04. 0:10 keine Meldung -
So, 22.04. 0:00 0.0 l/m2 in 1 Std. -
Sa, 21.04. 23:30 0.0 l/m2 in 1 Std. -
Sa, 21.04. 23:00 0.0 l/m2 in 1 Std. -
Sa, 21.04. 22:30 0.0 l/m2 in 1 Std. -
Sa, 21.04. 22:00 0.0 l/m2 in 1 Std. -
Ortszeit Stärke Spitze Richtung
km/h Bft. km/h Grad Sektor
Sa, 21.04. 20:00 6 1 30 50° NO
Sa, 21.04. 14:00 9 2 20 40° NO
Sa, 21.04. 8:00 0 0 7 - -
Sa, 21.04. 2:00 2 1 9 140° SO
Fr, 20.04. 20:00 6 1 19 20° N
Fr, 20.04. 14:00 7 2 22 150° SO
Fr, 20.04. 8:00 2 1 6 30° NO
Fr, 20.04. 2:00 0 0 11 - -
Ortszeit Stärke Spitze Richtung
km/h Bft. km/h Grad Sektor
So, 22.04. 1:00 4 1 7 20° N
So, 22.04. 0:50 4 1 - 20° N
So, 22.04. 0:40 4 1 - 10° N
So, 22.04. 0:30 6 1 9 10° N
So, 22.04. 0:20 6 1 - 10° N
So, 22.04. 0:10 6 1 - 20° N
So, 22.04. 0:00 4 1 11 350° N
Sa, 21.04. 23:30 6 1 11 360° N
Sa, 21.04. 23:00 6 1 11 10° N
Sa, 21.04. 22:30 7 2 11 20° N
Sa, 21.04. 22:00 4 1 14 60° NO
Ortszeit Untergrenze Bedeckung Gattung
total tief tief mittel hoch
Sa, 21.04. 20:00 10500 m 8/8 0/8 - - -
Sa, 21.04. 14:00 12000 m 5/8 0/8 - - -
Sa, 21.04. 8:00 2400 m 8/8 3/8 - - -
Sa, 21.04. 2:00 10500 m 8/8 0/8 - - -
Fr, 20.04. 20:00 10500 m 8/8 0/8 - - -
Fr, 20.04. 14:00 3600 m 5/8 - - - -
Fr, 20.04. 8:00 12000 m 8/8 0/8 - - -
Fr, 20.04. 2:00 9000 m 8/8 0/8 - - -
Ortszeit Bedeckungsgrad in Achtel und Wolkenuntergrenze
So, 22.04. 1:00 2(3000m) 4(10500m)
So, 22.04. 0:50 2(3000m) 4(10500m) 4(10500m)
So, 22.04. 0:40 9 9 9
So, 22.04. 0:30 1(10500m) 8(10500m) 8(10500m)
So, 22.04. 0:20 1(10500m) 8(10500m) 8(10500m)
So, 22.04. 0:10 3(10500m) 8(10500m) 8(10500m)
So, 22.04. 0:00 8(10500m) 8(10500m)
Sa, 21.04. 23:30 8(10500m) 8(10500m) 8(10500m)
Sa, 21.04. 23:00 8(9000m) 8(10500m) 8(12000m)
Sa, 21.04. 22:30 7(10500m) 8(10500m) 8(12000m)
Sa, 21.04. 22:00 8(9000m) 8(10500m) 8(10500m)
Ortszeit Luftdruck NN (hPa) Tendenz (hPa in 3 Std.)
Sa, 21.04. 20:00 1017 - 1,0
Sa, 21.04. 14:00 1019 - 1,1
Sa, 21.04. 8:00 1021 + 0,7
Sa, 21.04. 2:00 1020 - 0,2
Fr, 20.04. 20:00 1020 - 1,0
Fr, 20.04. 14:00 1023 - 1,5
Fr, 20.04. 8:00 1025 0,0
Fr, 20.04. 2:00 1026 - 0,3
Ortszeit Luftdruck NN (hPa) Tendenz (hPa in 3 Std.)
So, 22.04. 1:00 1018 + 0,2
So, 22.04. 0:50 1018 keine Meldung
So, 22.04. 0:40 1018 keine Meldung
So, 22.04. 0:30 1018 + 0,2
So, 22.04. 0:20 1018 keine Meldung
So, 22.04. 0:10 1018 keine Meldung
So, 22.04. 0:00 1018 + 0,5
Sa, 21.04. 23:30 1018 + 0,5
Sa, 21.04. 23:00 1018 + 0,6
Sa, 21.04. 22:30 1018 + 0,4
Sa, 21.04. 22:00 1018 + 0,2
Ortszeit Schneehöhe (cm)
Sa, 21.04. 20:00 0
Sa, 21.04. 14:00 0
Sa, 21.04. 8:00 0
Sa, 21.04. 2:00 0
Fr, 20.04. 20:00 0
Fr, 20.04. 14:00 0
Fr, 20.04. 8:00 0
Fr, 20.04. 2:00 0
Ortszeit Schneehöhe (cm)
So, 22.04. 1:00 0
So, 22.04. 0:50 0
So, 22.04. 0:40 0
So, 22.04. 0:30 0
So, 22.04. 0:20 0
So, 22.04. 0:10 0
So, 22.04. 0:00 0
Sa, 21.04. 23:30 0
Sa, 21.04. 23:00 0
Sa, 21.04. 22:30 0
Sa, 21.04. 22:00 0
Link zu dieser Seite / Seite empfehlen

Das Wetter in ...